Regional Weather Roundup
Issued by NWS

Home | Current Version | Previous Version | Text Only | Print | Product List | Glossary Off
Versions: 1 2 3 4 5 6 7 8 9 10 11 12 13 14 15 16 17 18 19 20 21 22 23 24 25 26 27 28 29 30 31 32 33 34 35 36 37 38 39 40 41 42 43 44 45 46 47 48 49 50

000
ASUS43 KDMX 211107
RWRIA

WEATHER ROUNDUP FOR IOWA
NATIONAL WEATHER SERVICE DES MOINES IA
500 AM CST SUN DEC 21 2014

NOTE: "FAIR" INDICATES FEW OR NO CLOUDS BELOW 12,000 FEET WITH NO
SIGNIFICANT WEATHER AND/OR OBSTRUCTIONS TO VISIBILITY.

* - THESE STATIONS ARE NOT NWS STATIONS...THUS NOT UNDER NWS
QUALITY CONTROL.  THEY ALSO DO NOT REPORT WEATHER SUCH
AS PRECIPITATION OR FOG.

IAZ001>003-012>014-020>022-031>034-043>046-211200-
   NORTHWEST IOWA

CITY           SKY/WX    TMP DP  RH WIND       PRES   REMARKS
CARROLL *      CLOUDY    37  36  93 S16       29.92F FOG     WCI  28
CHEROKEE *     FOG       34  34 100 S10       29.88F VSB 3/4 WCI  26
DENISON *      CLOUDY    37  37 100 S16G24    29.88F FOG     WCI  28
LE MARS *      CLOUDY    34  34 100 S9        29.87S FOG     WCI  26
ORANGE CITY *  FOG       34  32  93 S8        29.85F VSB 0   WCI  27
SHELDON *      FOG       32  32 100 SE9       29.84F VSB 1/4 WCI  24
SIOUX CITY     FOG       35  34  96 SE8       29.87F VSB 1/2 WCI  29
SPENCER        FOG       33  32  96 SE13      29.88F VSB 1/2 WCI  24
STORM LAKE *   FOG       34  34 100 S12       29.89F VSB 0   WCI  25
$$

IAZ055>058-069>071-079>083-090>094-211200-
   SOUTHWEST IOWA

CITY           SKY/WX    TMP DP  RH WIND       PRES   REMARKS
ATLANTIC *     CLOUDY    37  37 100 S17G23    29.95F FOG     WCI  28
AUDUBON *      CLOUDY    37  32  81 S12G20    29.94F HAZE    WCI  30
CLARINDA *     CLOUDY    37  36  93 S10       30.01F WCI  30
COUNCIL BLFS * CLOUDY    37  37 100 S15G21    29.92F FOG     WCI  28
CRESTON *      CLOUDY    36  36 100 S15       30.00F FOG     WCI  26
HARLAN  *      CLOUDY    37  37 100 S15G22    29.95F FOG     WCI  28
LAMONI         CLOUDY    35  34  96 S10       30.03F WCI  27
RED OAK *      CLOUDY    37  37 100 S12G20    29.97F WCI  30
SHENANDOAH *   CLOUDY    37  36  93 S15       29.98F FOG     WCI  28
$$

IAZ047>049-059>061-072>074-084-211200-
   CENTRAL IOWA

CITY           SKY/WX    TMP DP  RH WIND       PRES   REMARKS
AMES           CLOUDY    37  34  89 S9        29.99F FOG     WCI  30
ANKENY *       CLOUDY    37  36  93 S10       30.01S WCI  30
CHARITON *     CLOUDY    37  36  93 S12G18    30.03F WCI  30
DES MOINES     CLOUDY    38  34  85 S13       30.01F WCI  30
GRINNELL*      CLOUDY    36  36 100 S12       30.03F FOG     WCI  27
KNOXVILLE *    CLOUDY    37  36  93 S14       30.02F WCI  29
MARSHALLTOWN   CLOUDY    36  35  96 S12       30.00F FOG     WCI  28
PELLA *        CLOUDY    37  36  93 S13       30.05F WCI  29
PERRY *        CLOUDY    37  36  93 S13       29.97F FOG     WCI  29
$$

IAZ004>006-015-016-023>025-035-036-211200-
   NORTH CENTRAL IOWA

CITY           SKY/WX    TMP DP  RH WIND       PRES   REMARKS
ALGONA *       FOG       34  34 100 S12       29.92F VSB 1/4 WCI  25
CLARION *      FOG       36  36 100 S18       29.95F VSB 1/2 WCI  25
ESTHERVILLE    FOG       32  32 100 S14       29.89F VSB 1/4 WCI  22
FORT DODGE *   CLOUDY    36  34  93 S12G20    29.94F WCI  27
MASON CITY     FOG       32  32 100 SE13      29.97F VSB 1/4 WCI  22
FOREST CITY *  FOG       34  32  93 SE13      29.94F VSB 1/4 WCI  25
IOWA FALLS *   CLOUDY    36  34  93 S13       29.99F FOG     WCI  27
$$

IAZ007>011-017>019-026>030-037>042-050>054-066-211200-
   NORTHEAST IOWA

CITY           SKY/WX    TMP DP  RH WIND       PRES   REMARKS
CEDAR RAPIDS   CLOUDY    34  34 100 S10       30.06F FOG     WCI  26
CHARLES CITY * FOG       34  34 100 S12       30.00F VSB 0   WCI  25
CLINTON *      CLOUDY    34  30  86 SE7       30.16F WCI  28
DECORAH *      FOG       32  32 100 SE10G16   30.02F VSB 1/2 WCI  24
DUBUQUE        CLOUDY    32  31  96 S15       30.09F FOG     WCI  22
MONTICELLO *   CLOUDY    34  34 100 S8        30.09F FOG     WCI  27
OELWEIN *      FOG       34  34 100 S13       30.04F VSB 0   WCI  25
WATERLOO       FOG       34  34 100 S12       30.02F VSB 3/4 WCI  25
$$

IAZ064-065-067-068-078-211200-
   EAST CENTRAL IOWA

CITY           SKY/WX    TMP DP  RH WIND       PRES   REMARKS
DAVENPORT      CLOUDY    35  31  85 S12       30.13F WCI  27
IOWA CITY      CLOUDY    35  34  96 SE7       30.11F FOG     WCI  29
MT. PLEASANT * CLOUDY    36  36 100 S8        30.12S WCI  29
MUSCATINE *    CLOUDY    36  34  93 S3        30.13S FOG
QUAD CITIES    CLOUDY    35  32  88 SE5       30.13F FOG     WCI  31
$$

IAZ062-063-075>077-085>089-095>099-211200-
   SOUTHEAST IOWA

CITY           SKY/WX    TMP DP  RH WIND       PRES   REMARKS
BURLINGTON     CLOUDY    37  34  89 S6        30.13F WCI  32
FAIRFIELD *    CLOUDY    37  34  87 S8        30.10S WCI  31
FORT MADISON * CLOUDY    37  37 100 S6        30.14S WCI  33
KEOKUK *       CLOUDY    37  36  93 S5        30.13F WCI  34
OSKALOOSA *    CLOUDY    36  34  93 S10       30.07S WCI  28
CENTERVILLE *  MOCLDY    37  37 100 S10       30.07F WCI  30
OTTUMWA        CLOUDY    37  34  89 S10       30.07F WCI  30
WASHINGTON *   CLOUDY    37  37 100 S10       30.10S WCI  30
$$

ABBREVIATIONS USED IN REMARKS
   TC - TEMPERATURES IN CELSIUS
  WCI - WIND CHILL INDEX
   HX - HEAT INDEX
  VSB - VISIBILITY
$$




USA.gov is the U.S. government's official web portal to all federal, state and local government web resources and services.